"2016-06-27 00:00:00",1758169,6.156,80.4,3.615,0.255,25.43,111.181,27.93,28.93,16.37,0,111.5,12.96,28.78,42.4
"2016-06-27 00:00:30",1758170,6.656,78.23,3.824,0.4,25.45,111.1777,27.92,28.95,16.57,0,111.5,12.96,28.77,40.2
"2016-06-27 00:01:00",1758171,7.146,71.72,2.467,0.31,25.5,111.1737,27.91,28.94,16.79,0,111.5,12.96,28.76,33.7
"2016-06-27 00:01:30",1758172,7.272,66.01,3.782,0.187,25.48,111.1747,27.91,28.94,17,0,111.5,12.96,28.76,28.0
"2016-06-27 00:02:00",1758173,6.806,62.98,1.868,0.366,25.43,111.1725,27.91,28.94,17.46,0,111.5,12.96,28.76,25.0
"2016-06-27 00:02:30",1758174,6.263,65.29,2.776,0.392,25.45,111.1747,27.91,28.94,17.41,0,111.5,12.96,28.76,27.3
"2016-06-27 00:03:00",1758175,7.153,65.59,2.452,0.222,25.5,111.1747,27.91,28.92,17.27,0,111.5,12.96,28.76,27.6
"2016-06-27 00:03:30",1758176,6.591,64.8,2.199,0.267,25.46,111.1753,27.92,28.93,17.21,0,111.5,12.96,28.77,26.8
"2016-06-27 00:04:00",1758177,6.557,62.44,2.81,0.546,25.54,111.1773,27.92,28.93,17.21,0,111.5,12.96,28.77,24.4
"2016-06-27 00:04:30",1758178,6.801,65.5,3.736,0.41,25.56,111.1739,27.91,28.93,17.24,0,111.5,12.96,28.76,27.5
"2016-06-27 00:05:00",1758179,6.744,71.84,2.953,0.35,25.5,111.1648,27.89,28.94,17.1,0,111.5,12.97,28.74,33.8
"2016-06-27 00:05:30",1758180,6.376,75.74,3.158,0.334,25.56,111.1598,27.88,28.92,17.09,0,111.5,12.97,28.73,37.7
"2016-06-27 00:06:00",1758181,5.899,78.06,4.643,0.455,25.51,111.1549,27.86,28.92,16.86,0,111.5,12.97,28.71,40.1
"2016-06-27 00:06:30",1758182,5.366,67.51,6.758,0.151,25.39,111.1582,27.87,28.91,16.9,0,111.5,12.97,28.72,29.5
"2016-06-27 00:07:00",1758183,5.41,58.22,3.496,0.226,25.3,111.1613,27.88,28.9,16.97,0,111.5,12.98,28.73,20.2
"2016-06-27 00:07:30",1758184,5.676,60.13,1.374,0.146,25.36,111.1613,27.88,28.89,16.82,0,111.5,12.98,28.73,22.1
"2016-06-27 00:08:00",1758185,6.247,55.36,4.121,0.203,25.39,111.1515,27.85,28.89,16.84,0,111.5,12.98,28.70,17.4
"2016-06-27 00:08:30",1758186,5.497,50.14,3.846,0.35,25.41,111.1405,27.83,28.85,17.14,0,111.5,12.98,28.68,12.1
"2016-06-27 00:09:00",1758187,6.393,57.32,2.91,0.32,25.61,111.1372,27.82,28.85,17.28,0,111.5,12.98,28.67,19.3
"2016-06-27 00:09:30",1758188,5.976,60.2,3.829,0.602,25.65,111.1369,27.82,28.84,17.9,0,111.5,12.98,28.67,22.2
"2016-06-27 00:10:00",1758189,7.01,70.4,6.274,0.759,25.75,111.1356,27.81,28.84,17.41,0,111.5,12.98,28.66,32.4
"2016-06-27 00:10:30",1758190,7.474,77.89,7.628,0.569,25.77,111.1328,27.81,28.83,17.17,0,111.5,12.98,28.66,39.9
"2016-06-27 00:11:00",1758191,6.969,73.55,3.84,0.425,25.59,111.1336,27.81,28.82,16.75,0,111.5,12.98,28.66,35.6
"2016-06-27 00:11:30",1758192,6.997,76.08,3.865,0.544,25.63,111.1336,27.81,28.82,16.4,0,111.5,12.98,28.66,38.1
"2016-06-27 00:12:00",1758193,6.753,75.03,4.027,0.534,25.61,111.1328,27.81,28.83,16.62,0,111.5,12.98,28.66,37.0
"2016-06-27 00:12:30",1758194,5.343,78.94,5.045,0.294,25.49,111.1317,27.8,28.83,16.08,0,111.5,12.98,28.65,40.9
"2016-06-27 00:13:00",1758195,4.782,67.9,3.848,0.3,25.44,111.1317,27.8,28.83,16.52,0,111.5,12.98,28.65,29.9
"2016-06-27 00:13:30",1758196,4.723,69.54,5.439,0.19,25.44,111.1328,27.81,28.82,16.48,0,111.5,12.98,28.66,31.5
"2016-06-27 00:14:00",1758197,4.753,67.38,5.39,0.269,25.4,111.1329,27.81,28.81,16.47,0,111.5,12.98,28.66,29.4
"2016-06-27 00:14:30",1758198,5.179,62.61,2.586,0.343,25.35,111.1373,27.82,28.81,16.79,0,111.5,12.98,28.67,24.6
"2016-06-27 00:15:00",1758199,5.865,69.95,6.257,0.427,25.51,111.1402,27.83,28.82,17.15,0,111.5,12.98,28.67,31.9
"2016-06-27 00:15:30",1758200,6.594,69.41,3.288,0.448,25.53,111.141,27.83,28.83,17.37,0,111.5,12.98,28.68,31.4
"2016-06-27 00:16:00",1758201,6.757,64.67,3.859,0.629,25.57,111.1404,27.83,28.82,17.56,0,111.5,12.98,28.67,26.7
"2016-06-27 00:16:30",1758202,5.832,65.63,6.468,0.533,25.62,111.1423,27.83,28.83,17.67,0,111.5,12.98,28.68,27.6
"2016-06-27 00:17:00",1758203,6.041,68.17,5.762,0.349,25.56,111.1446,27.84,28.83,17.77,0,111.5,12.97,28.69,30.2
"2016-06-27 00:17:30",1758204,5.977,72.69,3.891,0.46,25.58,111.1438,27.83,28.83,17.71,0,111.5,12.97,28.68,34.7
"2016-06-27 00:18:00",1758205,5.986,68.99,3.291,0.255,25.5,111.1458,27.84,28.84,17.61,0,111.5,12.97,28.69,31.0
"2016-06-27 00:18:30",1758206,6.463,77.06,2.346,0.381,25.48,111.1468,27.84,28.84,17.26,0,111.5,12.96,28.69,39.1
"2016-06-27 00:19:00",1758207,6.343,76.34,2.541,0.31,25.52,111.1443,27.84,28.82,17.13,0,111.5,12.96,28.69,38.3
"2016-06-27 00:19:30",1758208,6.049,77.03,1.523,0.194,25.55,111.1423,27.83,28.83,17.07,0,111.5,12.96,28.68,39.0
"2016-06-27 00:20:00",1758209,5.884,79.61,3.473,0.23,25.55,111.1457,27.84,28.82,17.02,0,111.5,12.96,28.69,41.6
"2016-06-27 00:20:30",1758210,6.007,79.95,2.397,0.214,25.58,111.1426,27.83,28.83,17.01,0,111.5,12.96,28.68,41.9
"2016-06-27 00:21:00",1758211,6.18,76.15,4.05,0.471,25.5,111.1409,27.83,28.82,16.96,0,111.5,12.96,28.68,38.2
"2016-06-27 00:21:30",1758212,5.309,76.77,4.93,0.472,25.54,111.1395,27.82,28.82,17.08,0,111.5,12.97,28.67,38.8
"2016-06-27 00:22:00",1758213,6.058,67.12,2.439,0.456,25.45,111.1404,27.83,28.81,17.05,0,111.5,12.97,28.67,29.1
"2016-06-27 00:22:30",1758214,5.608,61.52,3.378,0.487,25.46,111.1404,27.83,28.82,17.14,0,111.5,12.97,28.67,23.5
"2016-06-27 00:23:00",1758215,5.608,70.06,1.86,0.175,25.43,111.1407,27.83,28.81,17.18,0,111.5,12.98,28.68,32.1
"2016-06-27 00:23:30",1758216,6.03,62.71,3.423,0.223,25.45,111.1362,27.82,28.8,17.44,0,111.5,12.98,28.66,24.7
"2016-06-27 00:24:00",1758217,5.678,68.34,1.85,0.125,25.49,111.1304,27.8,28.8,17.39,0,111.5,12.98,28.65,30.3
"2016-06-27 00:24:30",1758218,5.651,76.56,2.392,0.203,25.54,111.1248,27.79,28.8,17.59,0,111.5,12.98,28.63,38.6
"2016-06-27 00:25:00",1758219,5.654,65.89,7.017,0.218,25.46,111.1191,27.77,28.8,17.53,0,111.5,12.98,28.62,27.9
"2016-06-27 00:25:30",1758220,4.816,53.74,3.707,0.594,25.53,111.1158,27.76,28.79,17.73,0,111.5,12.98,28.61,15.7
"2016-06-27 00:26:00",1758221,5.1,60.22,3.791,0.663,25.57,111.1158,27.76,28.78,17.89,0,111.5,12.98,28.61,22.2
"2016-06-27 00:26:30",1758222,5.522,63.64,6.456,0.507,25.44,111.1158,27.76,28.79,17.76,0,111.5,12.98,28.61,25.6
"2016-06-27 00:27:00",1758223,7.111,54.69,3.032,0.396,25.42,111.1155,27.76,28.8,17.54,0,111.5,12.98,28.61,16.7
"2016-06-27 00:27:30",1758224,6.931,59.08,2.504,0.213,25.57,111.1152,27.76,28.78,17.11,0,111.5,12.98,28.61,21.1
"2016-06-27 00:28:00",1758225,7.018,64.4,3.464,0.388,25.62,111.1155,27.76,28.77,17.07,0,111.5,12.98,28.61,26.4
"2016-06-27 00:28:30",1758226,7.248,65.42,3.507,0.483,25.58,111.1158,27.76,28.78,17.44,0,111.5,12.98,28.61,27.4
"2016-06-27 00:29:00",1758227,6.718,62.18,3.709,0.31,25.58,111.1155,27.76,28.77,17.59,0,111.5,12.98,28.61,24.2
"2016-06-27 00:29:30",1758228,6.27,80.8,5.944,0.648,25.71,111.1144,27.76,28.77,17.89,0,111.5,12.98,28.61,42.8
"2016-06-27 00:30:00",1758229,6.269,90.2,4.03,0.362,25.71,111.1152,27.76,28.77,16.99,0,111.5,12.98,28.61,52.2
"2016-06-27 00:30:30",1758230,6.011,88.8,1.723,0.252,25.56,111.1149,27.76,28.77,15.88,0,111.5,12.98,28.61,50.8
"2016-06-27 00:31:00",1758231,6.397,84.8,4.351,0.265,25.64,111.1155,27.76,28.75,15.86,0,111.5,12.98,28.61,46.8
"2016-06-27 00:31:30",1758232,5.798,73.85,2.711,0.422,25.53,111.1155,27.76,28.76,16.01,0,111.5,12.98,28.61,35.8
"2016-06-27 00:32:00",1758233,5.656,76.68,4.715,0.306,25.6,111.1158,27.76,28.76,15.92,0,111.5,12.98,28.61,38.7
"2016-06-27 00:32:30",1758234,5.427,73.16,4.125,0.402,25.58,111.1169,27.77,28.77,15.93,0,111.5,12.98,28.61,35.2
"2016-06-27 00:33:00",1758235,5.562,77.32,3.672,0.386,25.52,111.1197,27.77,28.76,15.75,0,111.5,12.98,28.62,39.3
"2016-06-27 00:33:30",1758236,4.959,73.23,1.755,0.126,25.45,111.1276,27.79,28.77,15.35,0,111.5,12.98,28.64,35.2
"2016-06-27 00:34:00",1758237,5.304,78.2,5.184,0.335,25.47,111.1323,27.81,28.78,15.59,0,111.5,12.97,28.65,40.2
"2016-06-27 00:34:30",1758238,5.501,81.2,3.62,0.368,25.52,111.1399,27.82,28.79,16.05,0,111.5,12.97,28.67,43.2
"2016-06-27 00:35:00",1758239,4.812,82,5.416,0.305,25.39,111.141,27.83,28.8,16.23,0,111.5,12.97,28.68,44.0
"2016-06-27 00:35:30",1758240,4.606,74.06,4.364,0.592,25.46,111.141,27.83,28.79,16.5,0,111.5,12.97,28.68,36.1
"2016-06-27 00:36:00",1758241,4.959,65.77,4.832,0.644,25.36,111.141,27.83,28.8,16.94,0,111.5,12.97,28.68,27.8
"2016-06-27 00:36:30",1758242,5.199,73.93,4.583,0.433,25.4,111.141,27.83,28.8,17.76,0,111.5,12.97,28.68,35.9
"2016-06-27 00:37:00",1758243,5.284,78.9,4.553,0.232,25.51,111.141,27.83,28.81,17.68,0,111.5,12.96,28.68,40.9
"2016-06-27 00:37:30",1758244,5.236,69.45,4.732,0.512,25.39,111.1424,27.83,28.82,17.84,0,111.5,12.96,28.68,31.4
"2016-06-27 00:38:00",1758245,5.281,64.26,2.622,0.431,25.36,111.1416,27.83,28.83,17.73,0,111.5,12.96,28.68,26.3
"2016-06-27 00:38:30",1758246,5.515,63.68,2.301,0.449,25.37,111.1421,27.83,28.83,17.97,0,111.5,12.96,28.68,25.7
"2016-06-27 00:39:00",1758247,5.894,65.72,2.973,0.278,25.44,111.1413,27.83,28.82,17.83,0,111.5,12.96,28.68,27.7
"2016-06-27 00:39:30",1758248,5.391,64.12,3.794,0.262,25.47,111.141,27.83,28.84,17.87,0,111.5,12.97,28.68,26.1
"2016-06-27 00:40:00",1758249,5.729,72.25,2.366,0.349,25.53,111.141,27.83,28.84,17.75,0,111.5,12.97,28.68,34.2
"2016-06-27 00:40:30",1758250,5.165,70.23,5.367,0.274,25.47,111.141,27.83,28.84,17.57,0,111.5,12.98,28.68,32.2
"2016-06-27 00:41:00",1758251,5.669,65.59,5.899,0.633,25.47,111.141,27.83,28.83,18.13,0,111.5,12.98,28.68,27.6
"2016-06-27 00:41:30",1758252,6.109,60.36,2.194,0.197,25.48,111.141,27.83,28.84,17.76,0,111.5,12.98,28.68,22.4
"2016-06-27 00:42:00",1758253,6.496,66.1,3.818,0.21,25.52,111.141,27.83,28.84,17.82,0,111.5,12.98,28.68,28.1
"2016-06-27 00:42:30",1758254,5.899,67.35,4.949,0.295,25.54,111.1377,27.82,28.83,17.55,0,111.5,12.98,28.67,29.3
"2016-06-27 00:43:00",1758255,5.988,69.94,2.551,0.22,25.61,111.1326,27.81,28.82,17.67,0,111.5,12.98,28.65,31.9
"2016-06-27 00:43:30",1758256,5.86,75.85,3.85,0.212,25.54,111.1264,27.79,28.81,17.69,0,111.5,12.98,28.64,37.8
"2016-06-27 00:44:00",1758257,5.546,78.5,1.675,0.324,25.5,111.1194,27.77,28.81,17.38,0,111.5,12.98,28.62,40.5
"2016-06-27 00:44:30",1758258,4.544,73.88,5.516,0.375,25.5,111.1161,27.76,28.82,17.52,0,111.5,12.98,28.61,35.9
"2016-06-27 00:45:00",1758259,4.995,79.73,4.535,0.462,25.52,111.1155,27.76,28.82,17.89,0,111.5,12.98,28.61,41.7
"2016-06-27 00:45:30",1758260,5.299,81.4,2.239,0.371,25.54,111.1127,27.75,28.81,17.59,0,111.5,12.98,28.60,43.4
"2016-06-27 00:46:00",1758261,6.046,76.67,3.025,0.47,25.51,111.1076,27.74,28.82,17.27,0,111.5,12.98,28.59,38.7
"2016-06-27 00:46:30",1758262,7.001,71.19,3.7,0.302,25.58,111.1074,27.74,28.8,17.15,0,111.5,12.98,28.59,33.2
"2016-06-27 00:47:00",1758263,6.472,65.84,3.084,0.293,25.51,111.1074,27.74,28.79,17,0,111.5,12.98,28.59,27.8
"2016-06-27 00:47:30",1758264,6.103,66.5,2.907,0.168,25.5,111.1074,27.74,28.8,17.23,0,111.5,12.98,28.59,28.5
"2016-06-27 00:48:00",1758265,6.133,64.23,2.42,0.255,25.5,111.1054,27.74,28.77,17.35,0,111.5,12.98,28.58,26.2
"2016-06-27 00:48:30",1758266,6.042,65.94,3.309,0.392,25.49,111.0979,27.72,28.77,17.31,0,111.5,12.98,28.57,27.9
"2016-06-27 00:49:00",1758267,6.306,69.27,2.669,0.415,25.54,111.0861,27.69,28.77,17.12,0,111.5,12.98,28.53,31.3
"2016-06-27 00:49:30",1758268,5.788,70.21,4.144,0.306,25.53,111.0821,27.68,28.77,16.97,0,111.5,12.98,28.52,32.2
"2016-06-27 00:50:00",1758269,6.609,64.57,2.881,0.45,25.54,111.0805,27.67,28.75,16.94,0,111.5,12.98,28.52,26.6
"2016-06-27 00:50:30",1758270,6.052,65.45,4.129,0.287,25.5,111.0765,27.66,28.76,17.37,0,111.5,12.96,28.51,27.4
"2016-06-27 00:51:00",1758271,6.304,67.69,2.474,0.351,25.49,111.0737,27.65,28.75,17.41,0,111.5,12.98,28.50,29.7
"2016-06-27 00:51:30",1758272,6.654,67.55,1.366,0.187,25.48,111.075,27.66,28.75,17.15,0,111.5,12.98,28.51,29.6
"2016-06-27 00:52:00",1758273,6.803,69.47,2.076,0.202,25.49,111.0756,27.66,28.73,16.99,0,111.5,12.97,28.51,31.5
"2016-06-27 00:52:30",1758274,6.922,66.98,1.497,0.169,25.45,111.0743,27.66,28.72,16.85,0,111.5,12.97,28.50,29.0
"2016-06-27 00:53:00",1758275,6.91,68.15,1.361,0.126,25.46,111.073,27.65,28.71,16.74,0,111.5,12.97,28.50,30.2
"2016-06-27 00:53:30",1758276,7.058,57.3,3.448,0.336,25.47,111.0624,27.63,28.71,16.99,0,111.5,12.97,28.47,19.3
"2016-06-27 00:54:00",1758277,7.423,65.82,1.783,0.33,25.53,111.0518,27.6,28.69,17.03,0,111.5,12.97,28.45,27.8
"2016-06-27 00:54:30",1758278,6.732,64.66,1.503,0.269,25.54,111.0477,27.59,28.68,17.08,0,111.4,12.97,28.44,26.7
"2016-06-27 00:55:00",1758279,7.142,64.92,2.114,0.344,25.49,111.0516,27.6,28.67,16.87,0,111.5,12.97,28.45,26.9
"2016-06-27 00:55:30",1758280,7.543,62.65,1.655,0.209,25.52,111.0541,27.6,28.66,16.73,0,111.4,12.97,28.45,24.7
"2016-06-27 00:56:00",1758281,7.349,65.77,1.71,0.129,25.54,111.0491,27.59,28.65,16.73,0,111.4,12.97,28.44,27.8
"2016-06-27 00:56:30",1758282,7.119,65.2,2.63,0.321,25.56,111.038,27.56,28.63,17.08,0,111.4,12.97,28.41,27.2
"2016-06-27 00:57:00",1758283,7.08,62.1,2.828,0.341,25.47,111.0329,27.55,28.61,16.66,0,111.4,12.98,28.40,24.1
"2016-06-27 00:57:30",1758284,7.62,60.62,1.448,0.388,25.49,111.031,27.54,28.6,16.94,0,111.4,12.98,28.39,22.6
"2016-06-27 00:58:00",1758285,7.096,61.45,1.652,0.243,25.51,111.0323,27.55,28.58,17.02,0,111.4,12.98,28.40,23.5
"2016-06-27 00:58:30",1758286,6.793,60.77,2.939,0.381,25.52,111.0302,27.54,28.57,17.39,0,111.4,12.98,28.39,22.8
"2016-06-27 00:59:00",1758287,6.916,63.49,1.002,0.134,25.47,111.0179,27.51,28.56,16.85,0,111.4,12.98,28.36,25.5
"2016-06-27 00:59:30",1758288,7.092,63.62,1.87,0.309,25.55,111.0024,27.47,28.55,16.8,0,111.4,12.98,28.32,25.6
"2016-06-27 01:00:00",1758289,7.163,65.38,2.193,0.317,25.52,111.0007,27.47,28.53,16.59,0,111.4,12.98,28.31,27.4
"2016-06-27 01:00:30",1758290,7.19,67.69,3.134,0.186,25.56,111.0007,27.47,28.51,16.55,0,111.4,12.98,28.31,29.7
"2016-06-27 01:01:00",1758291,7.247,64.33,1.144,0.191,25.56,110.9996,27.46,28.5,16.45,0,111.4,12.98,28.31,26.3
"2016-06-27 01:01:30",1758292,7.281,64.78,2.161,0.141,25.57,110.9853,27.43,28.48,16.42,0,111.4,12.98,28.27,26.8
"2016-06-27 01:02:00",1758293,7.339,66.11,1.105,0.134,25.53,110.9744,27.4,28.46,16.43,0,111.4,12.98,28.25,28.1
"2016-06-27 01:02:30",1758294,7.417,63.91,1.351,0.143,25.54,110.9691,27.39,28.46,16.21,0,111.4,12.98,28.23,25.9
"2016-06-27 01:03:00",1758295,7.115,63.77,1.612,0.164,25.51,110.9671,27.38,28.46,16.17,0,111.4,12.98,28.23,25.8
"2016-06-27 01:03:30",1758296,7.085,62.02,1.314,0.141,25.52,110.9683,27.38,28.44,16.14,0,111.4,12.98,28.23,24.0
"2016-06-27 01:04:00",1758297,7.005,60.65,1.938,0.146,25.51,110.9687,27.38,28.43,16.21,0,111.4,12.98,28.23,22.7
"2016-06-27 01:04:30",1758298,6.933,61.17,1.852,0.18,25.52,110.9635,27.37,28.42,16.23,0,111.4,12.98,28.22,23.2
"2016-06-27 01:05:00",1758299,7.142,62.47,1.839,0.133,25.52,110.9499,27.34,28.4,15.97,0,111.4,12.98,28.18,24.5
"2016-06-27 01:05:30",1758300,7.272,61.82,2.643,0.191,25.52,110.9467,27.33,28.38,16.09,0,111.4,12.98,28.18,23.8
"2016-06-27 01:06:00",1758301,7.07,61.03,1.752,0.091,25.51,110.9444,27.32,28.37,16.08,0,111.4,12.98,28.17,23.0
"2016-06-27 01:06:30",1758302,6.956,61.2,2.28,0.138,25.48,110.9421,27.32,28.37,16.15,0,111.4,12.98,28.16,23.2
"2016-06-27 01:07:00",1758303,6.868,62.32,1.644,0.096,25.54,110.9428,27.32,28.36,16.1,0,111.4,12.98,28.17,24.3
"2016-06-27 01:07:30",1758304,6.835,61.2,1.339,0.155,25.52,110.9425,27.32,28.34,15.96,0,111.4,12.98,28.16,23.2
"2016-06-27 01:08:00",1758305,6.895,62.37,1.145,0.122,25.52,110.9428,27.32,28.35,15.9,0,111.4,12.98,28.17,24.4
"2016-06-27 01:08:30",1758306,6.816,63.66,1.868,0.136,25.52,110.9428,27.32,28.32,15.81,0,111.4,12.98,28.17,25.7
"2016-06-27 01:09:00",1758307,7.092,61.79,2.154,0.277,25.51,110.938,27.31,28.32,15.78,0,111.4,12.98,28.15,23.8
"2016-06-27 01:09:30",1758308,7.013,62.37,2.739,0.152,25.51,110.9276,27.28,28.31,15.83,0,111.4,12.98,28.13,24.4
"2016-06-27 01:10:00",1758309,6.919,63.27,0.807,0.127,25.51,110.9217,27.26,28.3,15.83,0,111.4,12.98,28.11,25.3
"2016-06-27 01:10:30",1758310,6.772,59.88,1.105,0.182,25.52,110.9175,27.25,28.3,15.71,0,111.4,12.98,28.10,21.9
"2016-06-27 01:11:00",1758311,6.775,58.06,1.148,0.142,25.51,110.9139,27.24,28.3,15.68,0,111.4,12.98,28.09,20.1
"2016-06-27 01:11:30",1758312,6.805,59.39,0.885,0.118,25.53,110.9102,27.23,28.28,15.62,0,111.4,12.98,28.08,21.4
"2016-06-27 01:12:00",1758313,6.876,59.56,1.071,0.134,25.54,110.9094,27.23,28.28,15.61,0,111.4,12.98,28.08,21.6
"2016-06-27 01:12:30",1758314,6.609,61.8,1.203,0.167,25.58,110.9091,27.23,28.28,15.43,0,111.4,12.98,28.08,23.8
"2016-06-27 01:13:00",1758315,6.657,57.3,1.149,0.099,25.49,110.9091,27.23,28.27,15.49,0,111.4,12.98,28.08,19.3
"2016-06-27 01:13:30",1758316,6.701,56.99,0.967,0.084,25.49,110.9091,27.23,28.26,15.47,0,111.4,12.98,28.08,19.0
"2016-06-27 01:14:00",1758317,6.757,56.18,0.893,0.11,25.52,110.9091,27.23,28.26,15.4,0,111.4,12.98,28.08,18.2
"2016-06-27 01:14:30",1758318,7.162,58.62,1.608,0.116,25.52,110.9088,27.23,28.24,15.31,0,111.4,12.98,28.08,20.6
"2016-06-27 01:15:00",1758319,6.947,56.43,0.802,0.068,25.53,110.9074,27.23,28.24,15.02,0,111.4,12.98,28.07,18.4
"2016-06-27 01:15:30",1758320,7.043,57.04,0.89,0.092,25.56,110.9024,27.21,28.24,14.97,0,111.4,12.98,28.06,19.0
"2016-06-27 01:16:00",1758321,7.155,56.54,0.926,0.066,25.57,110.8962,27.2,28.22,14.85,0,111.4,12.99,28.04,18.5
"2016-06-27 01:16:30",1758322,7.166,55.95,0.956,0.09,25.58,110.8934,27.19,28.22,15.01,0,111.4,12.99,28.04,18.0
"2016-06-27 01:17:00",1758323,7.264,56.71,1.215,0.114,25.58,110.8869,27.17,28.21,15.02,0,111.4,12.99,28.02,18.7
"2016-06-27 01:17:30",1758324,7.471,56.41,1.162,0.068,25.55,110.8841,27.17,28.2,14.8,0,111.4,12.99,28.01,18.4
"2016-06-27 01:18:00",1758325,7.455,56.9,0.65,0.077,25.58,110.8838,27.17,28.21,14.75,0,111.4,12.99,28.01,18.9
"2016-06-27 01:18:30",1758326,7.178,55.16,1.027,0.077,25.58,110.8785,27.15,28.2,14.61,0,111.4,12.99,28.00,17.2
"2016-06-27 01:19:00",1758327,7.068,56.78,1.546,0.112,25.62,110.8774,27.15,28.2,14.56,0,111.4,12.99,28.00,18.8
"2016-06-27 01:19:30",1758328,7.108,57.31,0.798,0.092,25.63,110.8754,27.14,28.2,14.52,0,111.4,12.99,27.99,19.3
"2016-06-27 01:20:00",1758329,7.16,58.14,0.656,0.051,25.59,110.8754,27.14,28.19,14.49,0,111.4,12.99,27.99,20.1
"2016-06-27 01:20:30",1758330,7.047,59.18,0.508,0.052,25.52,110.8754,27.14,28.18,14.41,0,111.4,12.99,27.99,21.2
"2016-06-27 01:21:00",1758331,7.062,58.07,0.837,0.071,25.55,110.8754,27.14,28.18,14.42,0,111.4,12.99,27.99,20.1
"2016-06-27 01:21:30",1758332,7.137,57.46,0.693,0.07,25.6,110.8754,27.14,28.17,14.42,0,111.4,12.99,27.99,19.5
"2016-06-27 01:22:00",1758333,7.108,58.72,0.621,0.066,25.55,110.8757,27.15,28.17,14.35,0,111.4,12.99,27.99,20.7
"2016-06-27 01:22:30",1758334,7.069,59.55,1.051,0.119,25.53,110.8754,27.14,28.16,14.41,0,111.4,12.99,27.99,21.5
"2016-06-27 01:23:00",1758335,7.014,61.62,0.353,0.091,25.61,110.8754,27.14,28.16,14.4,0,111.4,12.99,27.99,23.6
"2016-06-27 01:23:30",1758336,7.006,60.36,0.968,0.071,25.55,110.8755,27.14,28.16,14.28,0,111.4,12.99,27.99,22.4
"2016-06-27 01:24:00",1758337,6.92,56.96,0.897,0.074,25.5,110.8746,27.14,28.16,14.56,0,111.4,12.99,27.99,19.0
"2016-06-27 01:24:30",1758338,7.198,57.43,1.039,0.139,25.54,110.8756,27.15,28.15,14.86,0,111.4,12.99,27.99,19.4
"2016-06-27 01:25:00",1758339,7.323,56.7,1.695,0.177,25.46,110.8749,27.14,28.16,15.33,0,111.4,12.99,27.99,18.7
"2016-06-27 01:25:30",1758340,7.588,54.91,0.709,0.304,25.41,110.8691,27.13,28.16,16.08,0,111.4,12.99,27.97,16.9
"2016-06-27 01:26:00",1758341,7.27,56.42,1.127,0.196,25.47,110.8551,27.09,28.15,16.9,0,111.4,12.99,27.94,18.4
"2016-06-27 01:26:30",1758342,7.506,56.89,1.292,0.271,25.49,110.8561,27.09,28.14,16.73,0,111.4,12.98,27.94,18.9
"2016-06-27 01:27:00",1758343,8.43,57.52,1.873,0.365,25.42,110.8485,27.08,28.14,17.23,0,111.4,12.98,27.92,19.5
"2016-06-27 01:27:30",1758344,8.21,58.33,1.087,0.149,25.43,110.853,27.09,28.13,17.56,0,111.4,12.98,27.93,20.3
"2016-06-27 01:28:00",1758345,8.67,60.55,1.012,0.397,25.51,110.8525,27.09,28.12,17.18,0,111.4,12.98,27.93,22.5
"2016-06-27 01:28:30",1758346,8.98,61.91,2.162,0.272,25.49,110.8373,27.05,28.1,16.23,0,111.4,12.98,27.89,23.9
"2016-06-27 01:29:00",1758347,9.31,63.54,2.819,0.305,25.42,110.8248,27.01,28.08,16.93,0,111.4,12.98,27.86,25.5
"2016-06-27 01:29:30",1758348,8.8,59.15,2.352,0.304,25.42,110.8277,27.02,28.07,17.85,0,111.4,12.98,27.87,21.2
"2016-06-27 01:30:00",1758349,8.37,58.53,2.523,0.312,25.44,110.8076,26.97,28.06,18.03,0,111.4,12.98,27.82,20.5
"2016-06-27 01:30:30",1758350,8.6,60.17,1.338,0.114,25.47,110.799,26.95,28.02,17.68,0,111.4,12.98,27.79,22.2
"2016-06-27 01:31:00",1758351,8.19,56.15,1.11,0.327,25.39,110.7992,26.95,28,18.47,0,111.4,12.98,27.79,18.2
"2016-06-27 01:31:30",1758352,7.821,53.81,1.919,0.277,25.39,110.7776,26.89,27.97,18.58,0,111.4,12.98,27.74,15.8
"2016-06-27 01:32:00",1758353,8.18,54.25,1.035,0.199,25.26,110.7684,26.87,27.95,19.26,0,111.4,12.99,27.72,16.2
"2016-06-27 01:32:30",1758354,8.29,57.54,2.359,0.256,25.33,110.7484,26.82,27.92,19.26,0,111.4,12.99,27.66,19.5
"2016-06-27 01:33:00",1758355,8.39,59.35,1.662,0.176,25.3,110.735,26.78,27.89,19.61,0,111.4,12.99,27.63,21.3
"2016-06-27 01:33:30",1758356,8.18,60.27,0.612,0.061,25.46,110.7216,26.75,27.86,18.97,0,111.4,12.99,27.59,22.3
"2016-06-27 01:34:00",1758357,7.832,62.1,1.337,0.149,25.49,110.7036,26.7,27.83,18.59,0,111.4,12.99,27.55,24.1
"2016-06-27 01:34:30",1758358,7.695,64.95,1.324,0.133,25.53,110.7012,26.7,27.78,17.97,0,111.4,12.99,27.54,26.9
"2016-06-27 01:35:00",1758359,7.848,66.59,0.841,0.118,25.54,110.6837,26.65,27.75,17.73,0,111.4,12.99,27.50,28.6
"2016-06-27 01:35:30",1758360,7.699,65.5,1.496,0.178,25.51,110.6742,26.63,27.74,17.78,0,111.4,12.99,27.47,27.5
"2016-06-27 01:36:00",1758361,7.988,66.62,0.966,0.151,25.45,110.6748,26.63,27.71,18.16,0,111.4,12.99,27.47,28.6
"2016-06-27 01:36:30",1758362,7.943,66.61,1.59,0.213,25.44,110.6741,26.63,27.68,18.24,0,111.4,12.99,27.47,28.6
"2016-06-27 01:37:00",1758363,8.43,64.01,0.79,0.2,25.25,110.661,26.59,27.68,19.16,0,111.4,12.99,27.44,26.0
"2016-06-27 01:37:30",1758364,8.75,65.2,0.585,0.052,25.17,110.6486,26.56,27.65,19.87,0,111.4,12.99,27.41,27.2
"2016-06-27 01:38:00",1758365,8.84,64.35,0.443,0.07,25.16,110.6433,26.55,27.63,19.93,0,111.4,12.99,27.39,26.3
"2016-06-27 01:38:30",1758366,8.83,65.55,1.284,0.118,25.33,110.643,26.55,27.63,19.44,0,111.4,12.99,27.39,27.6
"2016-06-27 01:39:00",1758367,8.95,64.45,1.172,0.177,25.32,110.6239,26.5,27.59,19.09,0,111.4,12.99,27.34,26.4
"2016-06-27 01:39:30",1758368,8.88,63.63,0.765,0.176,25.35,110.6127,26.47,27.57,19.21,0,111.4,12.99,27.31,25.6
"2016-06-27 01:40:00",1758369,9,63.03,0.837,0.104,25.31,110.6096,26.46,27.56,19.33,0,111.4,12.99,27.31,25.0
"2016-06-27 01:40:30",1758370,9.14,62.99,0.68,0.086,25.34,110.6065,26.45,27.53,19.5,0,111.4,12.99,27.30,25.0
"2016-06-27 01:41:00",1758371,9.28,63.52,0.604,0.069,25.34,110.5869,26.4,27.5,19.49,0,111.4,12.99,27.25,25.5
"2016-06-27 01:41:30",1758372,9.28,63.68,0.548,0.076,25.3,110.5759,26.37,27.49,19.49,0,111.4,12.99,27.22,25.7
"2016-06-27 01:42:00",1758373,9.26,63.73,0.521,0.063,25.34,110.574,26.37,27.45,19.69,0,111.4,12.99,27.21,25.7
"2016-06-27 01:42:30",1758374,9.22,64.56,0.52,0.058,25.48,110.5529,26.32,27.44,19.3,0,111.4,13,27.16,26.6
"2016-06-27 01:43:00",1758375,9.04,64.2,0.265,0.037,25.5,110.5423,26.29,27.41,19.06,0,111.4,13,27.13,26.2
"2016-06-27 01:43:30",1758376,9.02,63.8,0.499,0.057,25.48,110.5414,26.29,27.37,18.93,0,111.4,13,27.13,25.8
"2016-06-27 01:44:00",1758377,8.96,62.34,0.56,0.055,25.34,110.5308,26.26,27.37,18.81,0,111.4,12.99,27.10,24.3
"2016-06-27 01:44:30",1758378,8.7,61.37,0.443,0.098,25.51,110.5145,26.22,27.33,18.68,0,111.4,12.99,27.06,23.4
"2016-06-27 01:45:00",1758379,8.65,60.72,0.569,0.092,25.51,110.5086,26.2,27.32,18.59,0,111.4,12.99,27.04,22.7
"2016-06-27 01:45:30",1758380,8.69,60.49,0.6,0.129,25.43,110.5086,26.2,27.28,18.66,0,111.4,12.99,27.04,22.5
"2016-06-27 01:46:00",1758381,8.7,60.94,0.54,0.14,25.46,110.5072,26.2,27.28,18.52,0,111.4,12.99,27.04,22.9
"2016-06-27 01:46:30",1758382,8.77,62.26,0.846,0.076,25.45,110.4985,26.18,27.27,18.38,0,111.4,12.99,27.02,24.3
"2016-06-27 01:47:00",1758383,8.81,63.35,0.786,0.042,25.38,110.4856,26.14,27.25,18.34,0,111.4,12.99,26.99,25.3
"2016-06-27 01:47:30",1758384,8.76,63.45,0.901,0.109,25.45,110.4831,26.14,27.23,18.26,0,111.4,12.99,26.98,25.5